Regional Weather Roundup
Issued by NWS

Home | Current Version | Previous Version | Text Only | Print | Product List | Glossary On
Versions: 1 2 3 4 5 6 7 8 9 10 11 12 13 14 15 16 17 18 19 20 21 22 23 24 25 26 27 28 29 30 31 32 33 34 35 36 37 38 39 40 41 42 43 44 45 46 47 48 49 50
000
ASUS44 KOUN 310710
RWROK

WEATHER ROUNDUP FOR OKLAHOMA
NATIONAL WEATHER SERVICE NORMAN OK
200 AM CDT THU JUL 31 2014

NOTE: "FAIR" INDICATES FEW OR NO CLOUDS BELOW 12,000 FEET WITH NO
      SIGNIFICANT WEATHER AND/OR OBSTRUCTIONS TO VISIBILITY.

OKZ001>007-009>012-014-015-017-310800-
NORTHWEST OKLAHOMA AND THE PANHANDLE

CITY           SKY/WX    TMP DP  RH WIND       PRES   REMARKS
GAGE           CLOUDY    63  62  97 NW7       30.18R
ENID/WOODRING  CLOUDY    66  66 100 N10       30.08F
$$

OKZ016-021>023-033>039-044-045-310800-
SOUTHWEST OKLAHOMA

CITY           SKY/WX    TMP DP  RH WIND       PRES   REMARKS
LAWTON/FT SILL CLOUDY    70  68  94 N12       30.01F
FREDERICK      CLOUDY    70  66  87 N16       30.02R
CLINTON        CLOUDY    67  64  90 N16       30.11S
HOBART         CLOUDY    68  62  81 NE16G24   30.07S
ALTUS AFB      CLOUDY    69  66  89 N16       30.07S
$$

OKZ018>020-024>031-310800-
CENTRAL OKLAHOMA

CITY           SKY/WX    TMP DP  RH WIND       PRES   REMARKS
OKLAHOMA CITY  CLOUDY    69  66  90 NE10      30.05S
OKC/WILEY POST CLOUDY    68  67  96 NE10      30.05F FOG
OKC/TINKER AFB DRIZZLE   67  66  96 NE8       30.05S FOG
STILLWATER     CLOUDY    67  65  93 NE6       30.06F
GUTHRIE        CLOUDY    68  67  96 NE6       30.06S
$$

OKZ008-013-054>072-310800-
NORTHEAST OKLAHOMA

CITY           SKY/WX    TMP DP  RH WIND       PRES   REMARKS
TULSA          CLOUDY    68  66  93 N5        30.04S
TULSA/JONES    CLOUDY    68  68 100 CALM      30.05F
PONCA CITY     CLOUDY    67  65  93 N7        30.09S
BARTLESVILLE   CLOUDY    67  32  27 N7        30.08S
MUSKOGEE       CLOUDY    69  67  93 CALM      30.05F
$$

OKZ032-040>043-046>053-073>077-310800-
SOUTH CENTRAL/SOUTHEAST OKLAHOMA

CITY           SKY/WX    TMP DP  RH WIND       PRES   REMARKS
ARDMORE/DWNTWN CLOUDY    68  68 100 CALM      29.98R
MCALESTER      CLOUDY    68  66  93 VRB6      30.04R
$$



USA.gov is the U.S. government's official web portal to all federal, state and local government web resources and services.